map of CZS home
Great Circle Mapper logo
CZS - Airport
Location
City:  Cruzeiro do Sul, Acre, Brazil
ICAO:SBCZ
IATA:CZS

Details
Type:Airport (Aerodrome, Airfield)
Use:International (customs port of entry)
Latitude:736'00"S (-7.599905)
Longitude:7246'10"W (-72.769488)
Datum:WGS 1984
Elevation:637 ft (194 m)
Variation:5.99W (WMM2015 magnetic declination)
-0.17 annual change
Runways:1
Longest:7874 × 148 ft (2400 × 45 m), paved

Time
Time Zone:UTC-5
Local Time:

Weather
METAR:SBCZ 061600Z 05006KT 9999 BKN030 32/24 Q1014
TAF:SBCZ 061600Z 0618/0718 12005KT 9999 BKN030 TX34/0618Z TN24/0707Z
BECMG 0619/0621 14005KT SCT030
BECMG 0621/0623 00000KT FEW030
BECMG 0707/0 709 00000KT CAVOK
BECMG 0712/0714 14005KT SCT030
RMK PEO

Related Locations
Nearby:
Farthest:VCS: 12345 mi / 19868 km
Con Son Island [Con Dao Airport (Co Ong Airport)], Con Dao Archipelago, VN

Find:

   beyond  
but within

Other Information
Maps:
NOTAMs:
Links:
Sources:

  
flag of Brazil
flag of Acre
  

Sectional Chart

Flight Planning
at skyvector.com

Satellite Image

Google Maps Satellite view

 

Copyright © 2004-2016 Karl L. Swartz. All rights reserved.
The Great Circle Mapper name and logo are trademarks of the Great Circle Mapper.
All other trademarks mentioned herein belong to their respective owners.
Please see credits for attibutions and further copyright information.

  Follow gcmap on Facebook Follow gcmap on Twitter Follow gcmap on Google+ GCmap on LinkedIn

hCard Microformat

Geo Microformat